Location: Newark
(34.9500°N, 139.9667°E)
Time: 09:22:11
(UTC+00:00)

ISS - Visible Passes

Search period start: 20 November 2019 00:00
Search period end: 30 November 2019 00:00
Orbit: 412 x 421 km, 51.6° (Epoch: 20 November)

Date Brightness Start Highest point End Pass type
(mag) Time Alt. Az. Time Alt. Az. Time Alt. Az.
20 Nov -1.5 08:08:23 10° SSE 08:09:50 12° SE 08:11:18 10° E visible
20 Nov -1.4 09:42:57 10° WSW 09:44:31 24° WSW 09:44:31 24° WSW visible
21 Nov -3.9 08:54:30 10° SW 08:57:50 83° SE 08:58:31 53° ENE visible
22 Nov -3.1 08:06:21 10° SSW 08:09:30 40° SE 08:12:24 12° ENE visible
22 Nov -1.1 09:43:49 10° W 09:45:20 17° WNW 09:45:20 17° WNW visible
23 Nov -2.3 08:54:48 10° W 08:57:49 31° NW 08:59:07 23° N visible
24 Nov -3.2 08:06:03 10° WSW 08:09:20 55° NW 08:12:38 10° NE visible
25 Nov -1.2 08:56:08 10° WNW 08:58:01 14° NNW 08:59:22 12° N visible
26 Nov -1.7 08:06:45 10° W 08:09:22 21° NNW 08:11:59 10° NNE visible
28 Nov -1.0 08:09:01 10° NNW 08:09:36 10° NNW 08:10:11 10° NNW visible
